[[{"header":{"parameterUnit":"m.s-1","parameterCategory":1,"la1":30.2991,"la2":30.254,"lo1":-89.0895,"lo2":-89.0444,"dy":0.0017,"dx":0.0017,"nx":28,"ny":28,"refTime":"2024-10-16T21:00:00:Z","depth":0,"parameterNumber":2,"parameterNumberName":"U-component_of_WINDS"},"data":[0,0,0,0,0,0,0,0,0,0,0,0,0,0,0,0,0,0,0,0,0,0,0,0,0,0,0,0,0,0,0,0,0,0,0,0,0,0,0,0,0,0,0,0,0,0,0,0,0,0,0,0,0,0,0,0,0,0,-4.5972,-4.5972,0,-4.5935,-4.5935,-4.5934,-4.5787,-4.5783,-4.578,-4.5777,-4.574,-4.5743,-4.5745,0,0,0,0,0,0,0,0,0,0,0,0,0,-4.5919,-4.5921,-4.5972,-4.5972,-4.5972,-4.5935,-4.5935,-4.5934,-4.5787,-4.5783,-4.5779,-4.5775,-4.574,-4.5742,-4.5745,0,0,0,0,0,0,0,0,0,0,0,0,0,-4.5918,-4.5921,-4.5973,-4.5894,-4.5886,-4.5935,-4.5935,-4.5934,-4.5788,-4.5783,-4.5778,-4.5773,-4.5739,-4.5742,-4.5745,-4.5868,0,0,-4.5755,-4.5757,0,0,0,0,0,0,0,0,-4.5918,-4.592,-4.5906,-4.5899,-4.5891,-4.586,-4.5902,-4.5912,-4.5789,-4.5826,-4.5777,-4.5771,-4.5785,-4.5784,-4.5788,-4.5866,-4.5865,-4.5756,-4.5758,-4.5759,-4.576,0,0,0,0,0,0,0,-4.5919,-4.5921,-4.5958,-4.5906,-4.5897,-4.5861,-4.5855,-4.5904,-4.5834,-4.5822,-4.5811,-4.5809,-4.578,-4.5785,-4.5786,-4.5864,-4.5756,-4.5759,-4.5761,-4.5762,-4.6042,-4.6048,0,0,0,0,0,0,-4.593,-4.5922,-4.5959,-4.5957,-4.5892,-4.5866,-4.586,-4.5875,-4.5833,-4.5822,-4.5813,-4.5802,-4.5782,-4.5782,-4.5784,-4.5925,-4.5759,-4.5762,-4.5764,-4.6037,-4.6044,-4.6049,0,0,0,0,0,0,-4.5929,-4.5934,-4.596,-4.5936,-4.5937,-4.5873,-4.5891,-4.5877,-4.5883,-4.5826,-4.5814,-4.5831,-4.5778,-4.578,-4.5848,-4.5922,-4.5764,-4.5767,-4.6031,-4.6039,-4.6047,-4.6209,0,0,0,0,0,0,-4.5928,-4.5935,-4.598,-4.5939,-4.5939,-4.6025,-4.5896,-4.588,-4.5889,-4.5874,-4.584,-4.583,-4.5774,-4.5844,-4.5852,-4.5924,-4.5769,-4.6024,-4.6034,-4.6044,-4.6197,-4.6221,-4.6243,0,0,0,0,0,-4.5927,-4.6027,-4.5983,-4.5988,-4.5994,-4.6029,-4.6029,-4.5963,-4.5895,-4.594,-4.5905,-4.5831,-4.5913,-4.5853,-4.586,-4.5934,-4.6019,-4.6031,-4.6043,-4.6186,-4.6217,-4.6242,0,0,0,0,0,0,-4.6079,-4.602,-4.5971,-4.6061,-4.6051,-4.6004,-4.6059,-4.5997,-4.6007,-4.5992,-4.591,-4.5904,-4.5985,-4.5966,-4.59,-4.6051,-4.5954,-4.5968,-4.606,-4.6088,-4.6111,-4.6114,-4.5772,0,0,0,0,0,-4.6124,-4.6156,-4.6103,-4.6188,-4.6186,-4.6124,-4.6137,-4.6086,-4.6073,-4.6069,-4.6037,-4.6028,-4.6052,-4.6069,-4.6088,-4.6194,-4.6185,-4.6248,-4.6272,-4.6291,-4.6304,-4.636,-4.6387,-4.609,-4.609,-4.6089,0,0,-4.6215,-4.6187,-4.6213,-4.6218,-4.6204,-4.6241,-4.6121,-4.6165,-4.6192,-4.6075,-4.6138,-4.6116,-4.61,-4.6188,-4.6225,-4.6175,-4.6385,-4.6307,-4.6322,-4.6325,-4.6375,-4.6403,-4.6429,-4.6098,-4.6097,-4.6095,0,0,-4.64,-4.6382,-4.6451,-4.644,-4.6421,-4.638,-4.6397,-4.636,-4.634,-4.6402,-4.6316,-4.6347,-4.639,-4.6382,-4.6384,-4.6569,-4.6502,-4.6578,-4.6699,-4.6754,-4.6777,-4.6798,-4.6864,-4.6889,-4.6591,-4.6592,-4.6592,0,-4.6516,-4.6567,-4.6494,-4.6544,-4.6549,-4.6446,-4.6516,-4.6509,-4.6498,-4.6505,-4.6449,-4.65,-4.6483,-4.6568,-4.6614,-4.6619,-4.6636,-4.6581,-4.678,-4.6799,-4.6817,-4.688,-4.6905,-4.6601,-4.66,-4.6599,-4.6598,0,-4.6711,-4.6748,-4.6806,-4.6798,-4.681,-4.687,-4.6807,-4.6828,-4.6778,-4.6743,-4.6808,-4.6783,-4.6796,-4.6812,-4.6763,-4.6892,-4.6861,-4.6794,-4.6694,-4.6856,-4.6914,-4.6937,-4.6614,-4.6611,-4.6608,-4.6606,0,0,-4.6989,-4.6941,-4.6964,-4.6959,-4.6932,-4.696,-4.7016,-4.7027,-4.7048,-4.7044,-4.709,-4.7129,-4.7067,-4.7069,-4.7019,-4.7068,-4.7217,-4.6994,-4.6992,-4.7036,-4.7357,-4.7408,-4.7437,-4.7173,-4.7177,-4.718,-4.7359,0,-4.7165,-4.7257,-4.7194,-4.7296,-4.733,-4.7234,-4.7283,-4.7272,-4.7242,-4.7267,-4.7233,-4.7263,-4.7178,-4.7179,-4.7223,-4.7189,-4.728,-4.7176,-4.7215,-4.7217,-4.7221,-4.7466,-4.7519,-4.7689,-4.7381,-4.7384,-4.7387,0,-4.7382,-4.7389,-4.7495,-4.7462,-4.7474,-4.7519,-4.7525,-4.755,-4.7537,-4.7512,-4.7516,-4.7454,-4.7507,-4.7411,-4.7484,-4.7415,-4.7427,-4.7413,-4.7418,-4.7419,-4.7311,-4.7473,-4.7741,-4.7767,-4.7422,-4.7419,-4.7416,0,-4.7575,-4.761,-4.7678,-4.7677,-4.7641,-4.7675,-4.7662,-4.7643,-4.7655,-4.7661,-4.7668,-4.7681,-4.7688,-4.7701,-4.7644,-4.7579,-4.7725,-4.7623,-4.7706,-4.7708,-4.774,-4.7739,-4.8014,-4.775,-4.775,-4.7749,-4.7749,0,-4.7777,-4.7846,-4.7764,-4.7806,-4.7881,-4.7809,-4.7885,-4.7861,-4.7847,-4.7883,-4.7801,-4.7837,-4.7761,-4.7789,-4.7746,-4.7814,-4.7818,-4.7799,-4.7787,-4.7806,-4.7809,-4.7812,-4.7799,-4.7756,-4.7754,-4.7753,-4.7752,0,-4.8004,-4.7952,-4.802,-4.798,-4.7972,-4.8029,-4.7996,-4.8033,-4.7998,-4.8046,-4.8053,-4.7998,-4.8028,-4.7973,-4.7996,-4.7966,-4.8062,-4.8031,-4.8066,-4.8057,-4.8143,-4.8135,-4.8429,-4.8464,-4.8179,-4.8182,-4.8184,0,-4.8136,-4.8187,-4.8154,-4.8172,-4.8163,-4.8194,-4.8206,-4.8138,-4.8154,-4.8144,-4.8184,-4.8206,-4.8221,-4.8274,-4.8236,-4.8254,-4.8223,-4.8325,-4.8225,-4.8243,-4.8224,-4.8222,-4.8227,-4.8345,-4.8348,-4.8351,-4.8353,0,-4.8377,-4.8349,-4.8369,-4.8381,-4.8397,-4.8403,-4.8403,-4.8423,-4.8352,-4.8374,-4.8403,-4.8415,-4.8439,-4.8463,-4.8472,-4.8459,-4.8396,-4.8386,-4.8406,-4.8426,-4.8444,-4.8435,-4.8122,-4.8379,-4.8376,-4.8374,-4.8373,-4.8372,-4.856,-4.8601,-4.8584,-4.861,-4.8603,-4.8606,-4.8639,-4.8609,-4.8632,-4.8646,-4.8605,-4.8645,-4.8632,-4.8637,-4.8631,-4.8662,-4.8617,-4.8646,-4.8653,-4.8661,-4.8675,-4.844,-4.8663,-4.8663,-4.8662,-4.8661,-4.8661,0,-4.8796,-4.8781,-4.8806,-4.8808,-4.8829,-4.8768,-4.8765,-4.8786,-4.8822,-4.8815,-4.8832,-4.8867,-4.8891,-4.8856,-4.8874,-4.8906,-4.8877,-4.8913,-4.8909,-4.8907,-4.8714,-4.8695,-4.8936,-4.8935,-4.8935,-4.8935,-4.8935,-4.8935,-4.8922,-4.8988,-4.8959,-4.9021,-4.9006,-4.9043,-4.9048,-4.905,-4.9044,-4.9087,-4.9106,-4.9084,-4.9066,-4.9083,-4.9103,-4.9092,-4.9102,-4.9149,-4.9128,-4.8948,-4.8921,-4.8895,-4.8877,-4.9151,-4.9152,-4.9318,-4.932,-4.9321]},{"header":{"parameterUnit":"m.s-1","parameterCategory":1,"la1":30.2991,"la2":30.254,"lo1":-89.0895,"lo2":-89.0444,"dy":0.0017,"dx":0.0017,"nx":28,"ny":28,"refTime":"2024-10-16T21:00:00:Z","depth":0,"parameterNumber":3,"parameterNumberName":"V-component_of_WINDS"},"data":[0,0,0,0,0,0,0,0,0,0,0,0,0,0,0,0,0,0,0,0,0,0,0,0,0,0,0,0,0,0,0,0,0,0,0,0,0,0,0,0,0,0,0,0,0,0,0,0,0,0,0,0,0,0,0,0,0,0,-0.6301,-0.6301,0,-0.6311,-0.6311,-0.6311,-0.6274,-0.6273,-0.6271,-0.627,-0.6283,-0.6285,-0.6286,0,0,0,0,0,0,0,0,0,0,0,0,0,-0.6251,-0.6252,-0.6301,-0.6301,-0.6301,-0.6311,-0.6311,-0.6311,-0.6274,-0.6272,-0.6271,-0.627,-0.6283,-0.6285,-0.6286,0,0,0,0,0,0,0,0,0,0,0,0,0,-0.6268,-0.6252,-0.6301,-0.6284,-0.6282,-0.6311,-0.6311,-0.6311,-0.6274,-0.6272,-0.6271,-0.6269,-0.6282,-0.6285,-0.6287,-0.6334,0,0,-0.6293,-0.6294,0,0,0,0,0,0,0,0,-0.6267,-0.627,-0.6286,-0.6285,-0.6283,-0.6289,-0.6298,-0.6319,-0.6275,-0.6277,-0.627,-0.6268,-0.6287,-0.6289,-0.6294,-0.6334,-0.6335,-0.6293,-0.6295,-0.6295,-0.6296,0,0,0,0,0,0,0,-0.6266,-0.6269,-0.6305,-0.6286,-0.6285,-0.6276,-0.6276,-0.6302,-0.6292,-0.6277,-0.6274,-0.6276,-0.6286,-0.6292,-0.6294,-0.6335,-0.6293,-0.6295,-0.6296,-0.6297,-0.6413,-0.6415,0,0,0,0,0,0,-0.6267,-0.6269,-0.6305,-0.6305,-0.6271,-0.6278,-0.6279,-0.6289,-0.6291,-0.629,-0.6277,-0.6274,-0.629,-0.6292,-0.6295,-0.635,-0.6295,-0.6297,-0.6299,-0.6411,-0.6414,-0.6416,0,0,0,0,0,0,-0.6266,-0.627,-0.6304,-0.6286,-0.629,-0.6281,-0.6293,-0.629,-0.6297,-0.6291,-0.629,-0.6286,-0.6288,-0.6292,-0.6324,-0.635,-0.6298,-0.63,-0.6409,-0.6412,-0.6415,-0.6461,0,0,0,0,0,0,-0.6265,-0.627,-0.6288,-0.6287,-0.6291,-0.6333,-0.6294,-0.6292,-0.63,-0.6296,-0.6299,-0.6298,-0.6287,-0.6321,-0.6326,-0.6352,-0.6302,-0.6407,-0.6411,-0.6414,-0.6457,-0.6465,-0.6472,0,0,0,0,0,-0.6263,-0.6301,-0.6289,-0.6294,-0.6313,-0.6335,-0.6337,-0.6324,-0.6302,-0.632,-0.6316,-0.6298,-0.6346,-0.6325,-0.633,-0.6357,-0.6405,-0.641,-0.6414,-0.6454,-0.6464,-0.6472,0,0,0,0,0,0,-0.6307,-0.6301,-0.6287,-0.6326,-0.6331,-0.6328,-0.6351,-0.6334,-0.6346,-0.6342,-0.6325,-0.6326,-0.6362,-0.6362,-0.6339,-0.6402,-0.6372,-0.6377,-0.6401,-0.641,-0.6417,-0.6417,-0.6304,0,0,0,0,0,-0.6321,-0.6339,-0.6333,-0.6368,-0.6371,-0.636,-0.637,-0.6358,-0.6363,-0.6365,-0.6364,-0.637,-0.6386,-0.6398,-0.6413,-0.6456,-0.6457,-0.6477,-0.6485,-0.6491,-0.6496,-0.6519,-0.6529,-0.6429,-0.6429,-0.6429,0,0,-0.6351,-0.635,-0.6362,-0.6377,-0.6379,-0.6399,-0.6363,-0.6385,-0.6399,-0.6369,-0.6399,-0.6398,-0.6404,-0.6442,-0.6459,-0.6444,-0.6523,-0.6496,-0.6501,-0.6503,-0.6524,-0.6534,-0.6542,-0.6432,-0.6431,-0.6431,0,0,-0.6416,-0.6416,-0.6445,-0.6448,-0.6452,-0.6444,-0.6451,-0.645,-0.6448,-0.6477,-0.6455,-0.6472,-0.6501,-0.6505,-0.6512,-0.6576,-0.6559,-0.6581,-0.662,-0.6642,-0.665,-0.6657,-0.6681,-0.6689,-0.6586,-0.6586,-0.6586,0,-0.6453,-0.6481,-0.6463,-0.6486,-0.6493,-0.6465,-0.6495,-0.6498,-0.6507,-0.6513,-0.6495,-0.653,-0.6531,-0.657,-0.6586,-0.6591,-0.6599,-0.6582,-0.665,-0.6657,-0.6663,-0.6686,-0.6695,-0.6589,-0.6588,-0.6588,-0.6588,0,-0.6526,-0.6546,-0.6569,-0.6577,-0.6586,-0.6613,-0.6599,-0.6611,-0.6598,-0.6592,-0.6623,-0.6623,-0.6637,-0.6645,-0.6634,-0.6682,-0.6673,-0.6653,-0.6623,-0.6676,-0.6697,-0.6705,-0.6592,-0.6592,-0.6591,-0.659,0,0,-0.6622,-0.6618,-0.6627,-0.663,-0.663,-0.6645,-0.667,-0.6683,-0.6693,-0.67,-0.6721,-0.6744,-0.6725,-0.6732,-0.6721,-0.674,-0.6792,-0.6718,-0.6718,-0.6733,-0.6846,-0.6862,-0.6872,-0.6779,-0.6781,-0.6782,-0.6846,0,-0.6686,-0.6728,-0.6712,-0.6755,-0.6773,-0.6745,-0.6767,-0.677,-0.6764,-0.6779,-0.6773,-0.6791,-0.6764,-0.6768,-0.6786,-0.6782,-0.6814,-0.6776,-0.68,-0.6801,-0.6802,-0.6883,-0.6901,-0.6961,-0.6854,-0.6855,-0.6856,0,-0.6768,-0.6776,-0.6821,-0.6817,-0.6824,-0.6844,-0.6854,-0.6868,-0.687,-0.6865,-0.6872,-0.6855,-0.688,-0.6847,-0.6881,-0.6856,-0.6864,-0.6863,-0.6865,-0.6868,-0.6833,-0.689,-0.698,-0.699,-0.6869,-0.6868,-0.6867,0,-0.6834,-0.6856,-0.6886,-0.6889,-0.6886,-0.69,-0.69,-0.69,-0.6908,-0.6917,-0.6922,-0.6934,-0.6941,-0.695,-0.6937,-0.6915,-0.6973,-0.694,-0.697,-0.6971,-0.6986,-0.6986,-0.708,-0.6988,-0.6988,-0.6988,-0.6988,0,-0.6909,-0.6938,-0.6916,-0.6934,-0.6966,-0.6946,-0.6978,-0.6974,-0.6975,-0.6992,-0.6968,-0.6985,-0.6966,-0.6982,-0.6972,-0.7002,-0.7004,-0.7002,-0.6999,-0.7005,-0.7005,-0.7012,-0.7008,-0.699,-0.699,-0.6989,-0.6989,0,-0.699,-0.6976,-0.7007,-0.7,-0.6999,-0.7022,-0.7017,-0.7034,-0.7026,-0.7048,-0.7052,-0.704,-0.7057,-0.7044,-0.7061,-0.7054,-0.7094,-0.7084,-0.7093,-0.7091,-0.7123,-0.7121,-0.7226,-0.7239,-0.7138,-0.7139,-0.7139,0,-0.7039,-0.7061,-0.7056,-0.7065,-0.7066,-0.7081,-0.7089,-0.707,-0.7079,-0.7083,-0.7099,-0.7114,-0.7124,-0.7152,-0.7146,-0.7158,-0.715,-0.7186,-0.7152,-0.7157,-0.7152,-0.7152,-0.7154,-0.7193,-0.7195,-0.7196,-0.7196,0,-0.7129,-0.7121,-0.7132,-0.7141,-0.7151,-0.7158,-0.7162,-0.7171,-0.7152,-0.7163,-0.7179,-0.7187,-0.7203,-0.7218,-0.7228,-0.7228,-0.721,-0.7206,-0.7215,-0.7222,-0.7226,-0.7226,-0.7114,-0.7205,-0.7204,-0.7203,-0.7203,-0.7203,-0.7197,-0.7214,-0.7213,-0.7227,-0.7228,-0.7232,-0.7248,-0.7241,-0.7253,-0.7264,-0.7252,-0.7272,-0.7273,-0.7284,-0.7285,-0.7301,-0.7286,-0.7298,-0.7301,-0.7304,-0.7309,-0.7222,-0.7302,-0.7302,-0.7302,-0.7302,-0.7302,0,-0.7286,-0.7284,-0.7296,-0.7303,-0.7313,-0.7292,-0.7296,-0.7307,-0.7324,-0.7326,-0.7336,-0.7354,-0.7368,-0.7361,-0.7373,-0.7387,-0.7379,-0.7391,-0.7391,-0.7391,-0.7321,-0.7314,-0.7397,-0.7397,-0.7397,-0.7397,-0.7397,-0.7397,-0.7335,-0.7363,-0.7354,-0.7383,-0.738,-0.7398,-0.7402,-0.7406,-0.7407,-0.7428,-0.7439,-0.7434,-0.7432,-0.7444,-0.7455,-0.7453,-0.7459,-0.7475,-0.747,-0.7405,-0.7396,-0.7387,-0.738,-0.7476,-0.7476,-0.7538,-0.7539,-0.7539]}]]